Flag for France Weather past 2 weeks in Tours, France

Now
63 °F

Sunny.


Feels Like: 63 °F
Forecast: 50 / 63 °F
Wind: 14 mph from West

Location: Tours Airport

Current Time: May 29, 2015 at 8:49:45 PM

Latest Report: May 29, 2015 at 8:30 PM


Visibility: 10 mi

Pressure: 29.95 "Hg

Humidity: 52%

Dew point: 45 °F

Location of ToursLocation

Historic Weather in Tours — Graph

°F

Tours temperature yesterday

Maximum temperature yesterday: 70 °F (at 4:00 PM)
Minimum temperature yesterday: 48 °F (at 6:30 AM)
Average temperature yesterday: 59 °F

Past Weeks' High & Low Weather Summary

 TemperatureHumidityPressure
High72 °F (May 27, 5:00 PM)100% (May 16, 5:30 AM)30.39 "Hg (May 16, 5:30 AM)
Low39 °F (May 21, 6:00 AM)38% (May 17, 5:30 PM)29.83 "Hg (May 18, 6:00 PM)
Average57 °F72%30.15 "Hg
* Reported May 14 8:00 PM — May 29 8:00 PM, Tours, Weather by CustomWeather, © 2015

Note: Actual official high and low records may vary slightly from our data, if they occured in-between our weather recording intervals... More about our weather records

Advertising

Tours weather history for previous 24 hours

 ConditionsComfort  
Time TempWeatherWind HumidityBarometerVisibility
8:00 PM
Fri, May 29
63 °FSunny.13 mph49%29.92 "Hg10 mi
7:30 PM64 °FSunny.14 mph46%29.92 "Hg10 mi
7:00 PM66 °FPassing clouds.16 mph46%29.92 "HgN/A
6:30 PM68 °FPassing clouds.13 mph46%29.92 "HgN/A
6:00 PM68 °FPassing clouds.12 mph46%29.92 "HgN/A
5:30 PM68 °FSunny.15 mph46%29.92 "Hg10 mi
5:00 PM68 °FPassing clouds.16 mph46%29.92 "HgN/A
4:30 PM68 °FPassing clouds.13 mph46%29.92 "HgN/A
4:00 PM68 °FPassing clouds.14 mph43%29.95 "HgN/A
3:30 PM68 °FPassing clouds.9 mph43%29.95 "HgN/A
3:00 PM68 °FPassing clouds.12 mph46%29.95 "HgN/A
2:30 PM68 °FPassing clouds.10 mph43%29.95 "HgN/A
2:00 PM66 °FPassing clouds.10 mph46%29.95 "HgN/A
1:30 PM64 °FPassing clouds.12 mph49%29.98 "HgN/A
1:00 PM64 °FPassing clouds.12 mph46%29.98 "HgN/A
12:30 PM63 °FPartly sunny.13 mph56%29.98 "HgN/A
12:00 PM63 °FBroken clouds.12 mph56%29.98 "HgN/A
11:30 AM61 °FPartly sunny.10 mph55%29.98 "HgN/A
11:00 AM61 °FPassing clouds.8 mph59%29.98 "HgN/A
10:30 AM59 °FPassing clouds.7 mph63%30.01 "HgN/A
10:00 AM57 °FPassing clouds.7 mph72%30.01 "HgN/A
9:30 AM55 °FOvercast.7 mph77%30.01 "HgN/A
9:00 AM55 °FSunny.7 mph82%29.98 "Hg10 mi
8:30 AM54 °FOvercast.8 mph82%29.98 "HgN/A
8:00 AM52 °FBroken clouds.6 mph88%29.98 "HgN/A
7:30 AM52 °FBroken clouds.7 mph88%29.98 "HgN/A
7:00 AM52 °FPassing clouds.5 mph94%29.98 "HgN/A
6:30 AM52 °FPassing clouds.5 mph94%29.98 "HgN/A
6:00 AM52 °FLight rain. Passing clouds.6 mph94%29.98 "HgN/A
5:30 AM54 °FLight rain. Passing clouds.5 mph88%29.98 "HgN/A
5:00 AM54 °FPassing clouds.5 mph94%29.98 "HgN/A
4:30 AM55 °FMostly cloudy.5 mph88%29.98 "HgN/A
4:00 AM55 °FMostly cloudy.5 mph88%29.98 "HgN/A
3:30 AM55 °FClear.5 mph88%29.98 "Hg10 mi
3:00 AM55 °FMostly cloudy.5 mph88%30.01 "HgN/A
2:30 AM55 °FPartly cloudy.6 mph88%30.01 "HgN/A
2:00 AM55 °FClear.5 mph88%30.01 "Hg10 mi
1:30 AM55 °FPassing clouds.6 mph88%30.01 "HgN/A
1:00 AM55 °FClear.3 mph88%30.01 "Hg10 mi
12:00 AM57 °FClear.5 mph77%30.04 "Hg10 mi
11:30 PM
Thu, May 28
59 °FClear.5 mph77%30.04 "Hg10 mi
11:00 PM61 °FClear.3 mph72%30.04 "Hg10 mi
10:30 PM61 °FPassing clouds.3 mph72%30.04 "HgN/A
10:00 PM61 °FSunny.3 mph72%30.04 "Hg10 mi
9:30 PM61 °FSunny.3 mph72%30.04 "Hg10 mi
9:00 PM63 °FSunny.5 mph68%30.04 "Hg10 mi
8:30 PM64 °FPassing clouds.8 mph64%30.04 "HgN/A
8:00 PM64 °FPartly sunny.7 mph64%30.04 "HgN/A
Weather by CustomWeather, © 2015

See weather overviewHow to use our weather pages